sat.trackr.live / text

‹ back to catalog

HULIANWANG DIGUI-67

NORAD 65173 · 2025-174K

PAYLOAD ACTIVE UNKNOWN

§ Identity

Operator
Country
PRC
Launch date
2025-08-13
Launch site
WSC
Launch vehicle
Mass (kg)
RCS (m²)

External: N2YO · Heavens-Above · Gunter

§ Orbital elements

Epoch: 2026-05-25T03:23:03.961248Z

Period
108.73 min
Inclination
86.4923°
Eccentricity
0.0001923
Mean motion
13.24405562 rev/d
Perigee alt
1,166.5 km
Apogee alt
1,169.4 km
Semi-major
7,546.1 km
B*
9.6989e-6
RAAN
259.7440°
Arg perigee
95.7960°
Mean anomaly
264.3393°
Rev number
3,770

§ Raw data

HULIANWANG DIGUI-671 65173U 25174K   26145.14101807  .00000019  00000+0  96989-5 0  99962 65173  86.4923 259.7440 0001923  95.7960 264.3393 13.24405562 37707

JSON: /api/v1/satellites/65173 · /tle

For live sub-satellite position, see the globe view (requires WebGL).

§ Visibility from observer

Set your observer location to see the next 7 days of passes ≥ 10°. The values pass through the URL so the page stays shareable.

No JS? Fill the form by hand. The geolocation button needs JavaScript.